Regional Weather Roundup
Issued by NWS Pendleton, OR

Home | Current Version | Previous Version | Text Only | Print | Product List | Glossary On
Versions: 1 2 3 4 5 6 7 8 9 10 11 12 13 14 15 16 17 18 19 20 21 22 23 24 25 26 27 28 29 30 31 32 33 34 35 36 37 38 39 40 41 42 43 44 45 46 47 48 49 50
743
ASUS46 KPDT 150004
RWRPDT
PENDLETON REGIONAL WEATHER ROUNDUP
NATIONAL WEATHER SERVICE PENDLETON OREGON
400 PM PST SUN FEB 14 2016

NOTE: FAIR INDICATES FEW OR NO CLOUDS BELOW 12,000 FEET WITH NO
SIGNIFICANT WEATHER AND/OR OBSTRUCTIONS TO VISIBILITY.

# INDICATES UNOFFICIAL STATION AND DATA

WAZ520-150110-
EAST SLOPES OF WASHINGTON CASCADES

CITY            SKY/WX      TMP DP  RH  WIND    PRES   REMARKS
#BULLFROG       N/A         42  42  100 S5      N/A
#BUMPING DAM    N/A         39  N/A N/A S1      N/A
#CLE ELUM HS    N/A         43  43  100 CALM    30.05
#CLE ELUM 2NW   N/A         42  42  100 W1      N/A
#CLE ELUM LAKE  N/A         42  42  100 W1      30.12
#CLIFFDEL 2NW   N/A         42  40  93  W8      N/A
#ELK HTS DOT    N/A         42  42  100 W1      N/A
#GLENWOOD       N/A         51  47  86  S7      30.15
#MANASTASH CYN  N/A         39  36  89  CALM    30.01
#NELSON         N/A         N/A N/A N/A CALM    30.04
#NELSON 3SW     N/A         44  42  93  NE3     30.33
#NILE           N/A         41  40  96  CALM    29.39
#PEOH POINT     N/A         39  39  100 SW6     N/A
#RONALD 2NW     N/A         42  N/A N/A N1      29.95F
#SNOWDEN        N/A         46  44  93  W7      N/A
#TEANAWAY 4NE   N/A         42  42  100 CALM    N/A
#TROUT LAKE 1NE N/A         45  43  93  W7      30.21
#TROUT LAKE 1E  N/A         45  44  96  CALM    30.13
$$

WAZ521-150110-
SIMCOE HIGHLANDS

CITY            SKY/WX      TMP DP  RH  WIND    PRES   REMARKS
#BICKLETON HS   N/A         49  39  68  W13     N/A    WCI 44
#SATUS PASS DOT N/A         46  42  86  W14     N/A    WCI 40
#CENTERVILLE 1SWN/A         53  46  77  W24     30.10
#GOLDENDALE     N/A         53  47  80  W9      N/A
#GOLDENDALE 1NE N/A         54  40  59  SW3     N/A
#GOODNOE HILLS  N/A         56  46  69  W30G37  30.01
#LYLE 6NE       N/A         53  49  86  SW10    30.15
$$

WAZ026-150110-
KITTITAS VALLEY

CITY            SKY/WX      TMP DP  RH  WIND    PRES   REMARKS
ELLENSBURG AP   CLOUDY      43  39  86  W5      30.06
6HR MIN TEMP:   41; 6HR MAX TEMP:   48; 6HR PCP:  0.04;

#ELLENSBURG CWU N/A         45  42  89  CALM    30.05
#ELLENSBURG 3NE N/A         44  42  93  CALM    30.06
#ELLENSBURG     N/A         46  46  100 S2      N/A
#ELLENSBURG 1E  N/A         45  N/A N/A CALM    N/A
#KITTITAS 4N    N/A         43  39  86  SE2     30.10
#KITTITAS 3S    N/A         40  38  92  CALM    30.10
#MANASTASH RDG  N/A         45  45  100 S8      N/A
#ROCKY CYN DOT  N/A         43  42  96  W7      N/A
#RYEGRASS DOT   N/A         43  39  86  W12     N/A    WCI 37
#THORP 6N       N/A         45  43  93  NW16G35 30.11  WCI 38
$$

WAZ027-150110-
YAKIMA VALLEY

CITY            SKY/WX      TMP DP  RH  WIND    PRES   REMARKS
SUNNYSIDE AP    MOCLDY      58  45  62  W5      30.08
6HR MIN TEMP:   51; 6HR MAX TEMP:   60;

YAKIMA AIRPORT  CLOUDY      57  41  55  CALM    30.07
6HR MIN TEMP:   46; 6HR MAX TEMP:   57;

#DONALD 2NE     N/A         59  34  39  N3      28.91
#GRANDVIEW      N/A         61  44  53  NW2     30.10
#MABTON         N/A         62  49  62  W2      30.07
#MOXEE 2E       N/A         53  32  45  S1      29.98F
#NACHES 2SW     N/A         51  44  77  CALM    30.10
#PARKER DOT     N/A         56  43  62  S2      N/A
#SELAH 8E       N/A         51  42  71  W6      N/A
#TERRACE HTS    N/A         54  44  69  CALM    30.06
#TOPPENISH      N/A         58  47  67  CALM    29.99
#I82 S UMTANUM RN/A         51  37  59  SW6     N/A
#UNION GAP DOT  N/A         54  42  64  NW1     N/A
#WEST VALLEY    N/A         53  43  69  CALM    30.08
#W YAKIMA       N/A         54  43  66  E2      30.10
#WHITE SWAN 5E  N/A         57  46  67  E1      30.09
#WILEY CITY 3W  N/A         50  41  71  CALM    30.03
#ZILLAH DOT     N/A         60  44  55  SW2     N/A
$$

WAZ028-150110-
LOWER COLUMBIA BASIN...WASHINGTON

CITY            SKY/WX      TMP DP  RH  WIND    PRES   REMARKS
PASCO           CLOUDY      59  47  64  SW15    30.10
6HR MIN TEMP:   53; 6HR MAX TEMP:   59; 6HR PCP:  TRACE;

PROSSER AWOS    N/A         59  48  67  S10     30.11
RICHLAND AWOS   CLOUDY      63  49  60  SW18G25 30.08
#BENTON CITY    N/A         59  50  72  SW15G26 29.99
#CONNELL 5N     N/A         53  49  86  SW6     30.08
#ELTOPIA 6NW    N/A         57  51  80  SW7     29.05
#KAHLOTUS       N/A         52  47  83  W18G26  30.09
#KENNEWICK 3S   N/A         56  49  77  N13G29  30.08
#PATERSON       N/A         58  49  72  W14G26  30.09
#PROSSER DOT    N/A         63  45  52  SW6     N/A
#PROSSER        N/A         58  46  64  S14     30.08
#SAGEMOOR 2W    N/A         58  52  80  S9      29.94
#TOUCHET 2S     N/A         57  48  72  SW17G25 30.08
#WEST PASCO     N/A         60  49  67  SW6     30.07
$$

WAZ029-150110-
FOOTHILLS OF THE BLUES...WASHINGTON

CITY            SKY/WX      TMP DP  RH  WIND    PRES   REMARKS
WALLA WALLA AP  CLOUDY      54  46  74  S12     30.12
6HR MIN TEMP:   49; 6HR MAX TEMP:   54; 6HR PCP:  0.01;

#CLYDE 6NW      N/A         51  46  83  SW13    30.11
#DAYTON SCHOOL  N/A         53  42  66  S9      30.12
#DELANEY DOT    N/A         55  46  72  W2      N/A
#LOWDEN 2SE     N/A         57  48  72  W7      30.09
#PLEASANT VIEW 1N/A         49  46  89  SW12    30.15  WCI 44
#PRESCOTT       N/A         53  49  86  CALM    30.11
#WHITMAN COLLEGEN/A         56  48  74  S3      30.17
#WAITSBURG 5S   N/A         51  47  86  S10     30.22
#WAITSBURG 8N   N/A         50  28  42  S13     29.97
#WALLA WALLA 5E N/A         54  49  83  SW14    N/A
#WALLA WALLA U  N/A         57  49  75  CALM    30.13
#WHITMAN MISSIONN/A         58  49  72  SW1     30.13
$$

WAZ030-150110-
BLUE MOUNTAINS...WASHINGTON

CITY            SKY/WX      TMP DP  RH  WIND    PRES   REMARKS
#DIXIE 5SE      N/A         47  44  89  S8      30.06
#SKI BLUEWOOD   N/A         39  37  92  E7      30.10
$$

ORZ009-041-WAZ024-150110-
COLUMBIA RIVER GORGE

CITY            SKY/WX      TMP DP  RH  WIND    PRES   REMARKS
HOOD RIVER AP   CLOUDY      55  50  83  W7      30.18
THE DALLES AP   PTCLDY      59  49  69  NW20G26 30.15
6HR MIN TEMP:   47; 6HR MAX TEMP:   60;

#ARLINGTON AIRPON/A         58  50  75  W12     30.14
#ARLINGTON HS   N/A         60  48  64  CALM    30.03
#CELILO DOT     N/A         60  44  55  SW8     N/A
#LYLE           N/A         58  52  80  W14     30.17
#MARYHILL       N/A         60  48  64  CALM    N/A
#MARYHILL 2W    N/A         58  49  72  S14     N/A
#MOSIER 1S      N/A         55  44  66  W10     30.17
#MURDOCK        N/A         59  52  78  NW13    30.13
#RUFUS DOT      N/A         57  49  75  SE2     N/A

$$

ORZ510-150110-
NORTH CENTRAL OREGON

CITY            SKY/WX      TMP DP  RH  WIND    PRES   REMARKS
#CHENOWITH 1W   N/A         51  49  93  W20G26  N/A
#COW CYN RST AREN/A         54  44  69  W16     N/A
#DUFUR 9E       N/A         53  48  83  W9      30.22
#GRASS VALLEY 1SN/A         56  49  77  W23G30  30.14
#KENT DOT       N/A         58  39  49  N21     N/A
#MAUPIN SCHOOL  N/A         62  48  60  SW13    30.17
#SHANIKO 5WSW   N/A         53  38  57  SW20    N/A
#SHANIKO 4NW    N/A         52  46  80  W20G26  30.18
#TYGH VALLEY 2NEN/A         60  49  67  SW12    30.15
#WAPANITIA AIRPON/A         56  48  74  W14G24  30.20
#WASCO DOT      N/A         59  46  62  W10     N/A
#WASCO 5NE      N/A         56  50  80  N6      30.15
$$

ORZ511-150110-
CENTRAL OREGON

CITY            SKY/WX      TMP DP  RH  WIND    PRES   REMARKS
BEND AIRPORT    MOCLDY      55  45  69  SW12    30.24
MADRAS AIRPORT  CLOUDY      57  45  64  SW9     30.23
PRINEVILLE AP   MOCLDY      57  45  64  W16     30.24
#ASHWOOD SCHOOL N/A         58  46  64  W6      30.14
#BEND 6E        N/A         55  42  61  CALM    30.18
#BEND 1SW       N/A         51  46  83  SW2     N/A
#BEND-KIM LN    N/A         54  46  74  SW7     30.23
#LAKE BILLY CHINN/A         58  N/A N/A SW3     30.25
#MADRAS         N/A         57  44  62  W9      N/A
#POWELL BUTTE 3EN/A         56  44  64  NW12    N/A
#PRINEVILLE 3N  N/A         57  46  67  SW3     30.22
#WARM SPRINGS   N/A         62  48  60  CALM    30.16

$$


ORZ509-150110-
EAST SLOPES OF OREGON CASCADES

CITY            SKY/WX      TMP DP  RH  WIND    PRES   REMARKS
SISTERS AWOS    N/A         55  45  69  W14     30.19
#BLUE BOX PASS  N/A         44  N/A N/A NE2     N/A
#BLACK BUTTE RNCN/A         50  46  86  CALM    30.25
#CAMP SHERMAN   N/A         46  43  89  CALM    30.34
#LA PINE DOT    N/A         48  45  89  S1      N/A
#LA PINE 4NW    N/A         46  43  89  CALM    30.35
#SISTERS AIRPOR N/A         54  48  80  N2      30.17
#SISTERS ODOT   N/A         54  N/A N/A S8      N/A
#SISTERS 3N     N/A         54  41  61  CALM    30.24
#SUNRIVER       N/A         47  46  96  SE1     30.32
#SUTTLE LK DOT  N/A         41  41  100 SW2     N/A
#TUMALO 3W      N/A         57  43  59  NW10    30.13
#WANOGA BUTTE D N/A         40  40  100 S1      N/A

$$

ORZ044-150110-
LOWER COLUMBIA BASIN...OREGON

CITY            SKY/WX      TMP DP  RH  WIND    PRES   REMARKS
HERMISTON       PTCLDY      59  48  67  SW10    30.11
6HR MIN TEMP:   50; 6HR MAX TEMP:   59; 6HR PCP:  TRACE;

#BOARDMAN SCHOOLN/A         60  50  69  SW10    30.13
#BOARDMAN 8SW   N/A         59  51  75  W9      30.12
#ECHO 8SW       N/A         57  47  69  W7      30.12
#I-84 EX 198 DOTN/A         57  47  69  E3      N/A
#IONE SCHOOL    N/A         58  38  47  CALM    30.10
#IRRIGON 4NW    N/A         57  50  77  S14     N/A
#UMATILLA SCHOOLN/A         57  53  86  NW9     30.09
#UMATILLA       N/A         60  48  64  W7      30.04
$$

ORZ507-150110-
NORTHERN FOOTHILLS OF THE BLUES

CITY            SKY/WX      TMP DP  RH  WIND    PRES   REMARKS
PENDLETON AIRPT LGT RAIN    53  48  83  SW6     30.13
6HR MIN TEMP:   48; 6HR MAX TEMP:   53; 6HR PCP:  0.01;

#ADAMS 3WNW     N/A         51  48  89  SW3     30.16
#ATHENA         N/A         52  49  89  SW1     30.16
#CAYUSE         N/A         55  48  77  SW7     30.13
#HELIX SCHOOL   N/A         51  48  89  SW5     30.14
#HELIX 3N       N/A         50  47  89  SW8     30.09
#HOLDMAN 5SE    N/A         54  48  80  SW7     30.11
#HOLDMAN 6E     N/A         51  46  83  NE9     29.95
#M-F GROVE ELEM N/A         55  45  69  S7      30.10
#M-FREEWATER 5SEN/A         54  47  77  CALM    30.12
#PENDLETON DNTN N/A         54  49  83  CALM    30.16
#PDT AQUATIC CTRN/A         55  48  77  CALM    30.14
#PDT SUNRIDGE   N/A         54  50  86  CALM    30.14
#PENDLETON 7NW  N/A         54  48  80  CALM    26.41
#PILOT ROCK     N/A         55  45  69  S7      30.14
#TUTUILLA       N/A         54  49  83  CALM    30.14
#UMAPINE 2E     N/A         58  50  75  CALM    30.09
#WESTON SCHOOL  N/A         51  45  80  SW7     30.10

$$

ORZ508-150110-
SOUTHERN FOOTHILLS OF THE BLUES

CITY            SKY/WX      TMP DP  RH  WIND    PRES   REMARKS
#CONDON SCHOOL  N/A         56  48  74  SW15    30.10
#FOSSIL SCHOOL  N/A         56  46  69  W8      30.12
#HEPPNER EOC    N/A         57  47  69  SW3     30.08
#HEPPNER 4NE    N/A         53  46  77  SW9     30.16
#LEXINGTON 2SE  N/A         60  49  67  N6      30.10
#MIKKALO        N/A         60  48  64  NW7     30.22
#OLEX 4N        N/A         59  51  75  W13     30.11
#RUGGS 2SW      N/A         56  46  69  W14     30.17

$$

ORZ502-503-150110-
BLUE MOUNTAINS

CITY            SKY/WX      TMP DP  RH  WIND    PRES   REMARKS
MEACHAM         RAIN        39  38  96  CALM    30.15  FOG
6HR MIN TEMP:   38; 6HR MAX TEMP:   41; 6HR PCP:  0.37;

#BATTLE MTN DOT N/A         39  39  100 SE6     N/A
#HEPPNER 15SE   N/A         36  28  72  N5      30.30
#LADD CYN SMT   N/A         36  33  89  SE20    N/A    WCI 25
#LADD CREEK ODOTN/A         39  37  92  S8      N/A
#N POWDER DOT   N/A         38  36  92  W2      N/A
#PIKES PEAK     N/A         45  44  96  SW24    27.99  WCI 36
#TOLLGATE       N/A         38  38  100 S8      29.98
#TROY SCHOOL    N/A         50  44  80  CALM    30.02
#UKIAH          N/A         44  42  93  S1      30.16
#WESTON 4E      N/A         45  44  96  S6      30.16
$$

ORZ505-150110-
JOHN DAY BASIN

CITY            SKY/WX      TMP DP  RH  WIND    PRES   REMARKS
JOHN DAY        CLOUDY      42  40  93  CALM    30.24
#DAYVILLE SCHOOLN/A         46  40  79  E5      30.18
#MITCHELL       N/A         56  49  77  CALM    30.34
#MITCHELL 8NW   N/A         54  43  66  W5      30.40
#MONUMENT HS    N/A         46  41  83  NE1     30.11
#MT. VERNON 5SE N/A         42  41  96  CALM    30.19
#WINLOCK        N/A         48  46  93  E6      30.15
$$

ORZ506-150110-
OCHOCO AND JOHN DAY HIGHLANDS

CITY            SKY/WX      TMP DP  RH  WIND    PRES   REMARKS
#HORSE RIDGE DO N/A         54  41  61  W12     N/A
#PAULINA SCHOOL N/A         48  43  83  N1      30.17
#PINE MTN OBS   N/A         43  40  89  SW7     N/A
#PRAIRIE CITY   N/A         40  39  96  CALM    30.22
#SENECA         N/A         40  N/A N/A CALM    N/A
#SENECA 9NW     N/A         36  35  96  CALM    30.30
$$

ORZ049-150110-
GRANDE RONDE VALLEY

CITY            SKY/WX      TMP DP  RH  WIND    PRES   REMARKS
LA GRANDE       CLOUDY      45  45  100 CALM    30.17
#COVE           N/A         45  45  100 CALM    30.19
#COVE SCHOOL    N/A         46  44  93  CALM    30.18
#COVE 6NW       N/A         42  40  93  SE1     30.06
#ELGIN 3N       N/A         43  38  82  CALM    30.12
#ELGIN 1E       N/A         45  40  82  CALM    N/A
#IMBLER SCHOOL  N/A         43  40  89  S9      30.12
#ISLAND CITY 4N N/A         55  53  93  S1      30.25
#LADD CYN DOT   N/A         42  39  89  SE15    N/A    WCI 34
#UNION 1S       N/A         41  38  89  S8      30.15
$$

ORZ050-150110-
WALLOWA COUNTY

CITY            SKY/WX      TMP DP  RH  WIND    PRES   REMARKS
#ENTERPRISE AP  N/A         42  37  82  CALM    30.07
#ENTERPRISE HS  N/A         43  39  86  CALM    30.15
#IMNAHA 10S     N/A         44  39  82  SW2     30.14
#JOSEPH 3N      N/A         41  35  79  CALM    30.15
#JOSEPH 3W      N/A         38  34  85  CALM    29.98
#LOSTINE        N/A         40  37  89  SE3     30.01
#MT HOWARD 8000 N/A         33  30  89  W10     30.13
#PROMISE 1S     N/A         41  38  89  E5      30.27
#WALLOWA SCHOOL N/A         42  40  93  CALM    30.11



$$



USA.gov is the U.S. government's official web portal to all federal, state and local government web resources and services.